Showing default

TIANHUI 5D, 60212

Orbit data source: Space-Track

TIANHUI 5D, 60212 is a payload satellite owned by G. Cehui dili (CN) in SSO that was launched on Thu, 04 Jul 2024 UTC via a CHANG ZHENG 6A launch vehicle from the Taiyaun Space Center, China (TSC). Payload-class satellites include a variety of spacecraft equipped with specific instruments for various scientific and technological missions. These include communications satellites like Starlink; space stations such as the ISS; scientific satellites like the Hubble; Earth observation satellites from companies like Planet Labs, Umbra, and HawkEye 360; GPS; miniature CubeSats for education and research; and military/defense satellites.

Loading next visibility...
Identifier
60212, 2024-126B
Orbit
SSO
Country
Flag of CNCN / PRC
Related business
Manufacturer
DFH
Mission
Operational Civil Radar Imaging
Bus & Motor
CAST-2000?, Unknown motor
Mass
~1,000 kg wet, ~1,000 kg dry
Launch date (UTC)
2024-07-04 (2 years ago)
Launch vehicle
CHANG ZHENG 6A
Launch site
Taiyaun Space Center, China (TSC)
Object type
Payload
Rocket body
Debris
Shape & HBR
Box + 2 Pan, 7.0 m
Radar Cross Section
12.451 m², Large (>1 m²)

Expand to show TLE details & history
Last TLE update: 1 day ago

TLE from 1 day ago
0 TIANHUI 5D
1 60212U 24126B   26170.45375472  .00000222  00000-0  30354-4 0  9994
2 60212  97.8219 177.9763 0001565  91.0192 269.1204 14.87578418106237
Epoch: 2026-06-19T10:53Z
TLE epoch observation values (Epoch: 2026-06-19T10:53:24.407Z)
Latitude
-0°
Longitude
106.9421°
Altitude
608.555 km
Speed
7.555 km/s
True Right ascension
11h 51m 54s
True Declination
0° 00' 00"
Sunlit
Object was in daylight at epoch
Visualization orbit readout
Latitude
Unknown
Longitude
Unknown
Altitude
Unknown
Speed
Unknown
Apparent Right ascension
Unknown
Apparent Declination
Unknown
Sunlit
N/A
Visualization observer readout
Local Sidereal Time
07:23:34
Azimuth
Unknown
Elevation
Unknown
Doppler factor
Unknown
Orbital elements
Apogee altitude
603.624 km
Perigee altitude
601.439 km
Semi-major axis
6,980.669 km
Eccentricity
0.00016
Inclination
97.8219°
RAAN
177.9763°
Arg. of periapsis
91.0192°
True anomaly
269.10247°
Mean anomaly
269.1204°
Eccentric anomaly
269.11143°
Mean motion
3.72133 °/min
Orbital period
96.74 mins
BSTAR
0.000030354
Loading maneuver chart data...
Computing Atmospheric mass density...
Loading historical data...
Loading historical data...
Loading historical data...
Loading historical data...
Loading historical data...
Loading historical data...
Loading historical data...
Other satellites on launch #126 in the year 2024 (2024-07-04 UTC)

Documentation

Showing up to 5 results
|